Skip Page Navigation
NASA JPL Caltech
NASA Logo - Jet Propulsion Laboratory + View the NASA Portal
+ Near-Earth Object (NEO) Program
Search JPL
JPL Home Earth Solar System Stars & Galaxies Technology
JPL Solar System Dynamics
BODIES ORBITS EPHEMERIDES TOOLS PHYSICAL DATA DISCOVERY FAQ SITE MAP
JPL Small-Body Database Browser
Search: [ help ]  
(2005 FE3)
Classification: Apollo [NEO, PHA]          SPK-ID: 3275203
Ephemeris | Orbit Diagram | Orbital Elements | Physical Parameters | Close-Approach Data ]

[ hide orbit diagram ]
Orbit Diagram
Note: Make sure you have Java enabled on your browser to see the applet. This applet is provided as a 3D orbit visualization tool. The applet was implemented using 2-body methods, and hence should not be used for determining accurate long-term trajectories (over several years or decades) or planetary encounter circumstances. For accurate long-term ephemerides, please instead use our Horizons system.
Orbit Viewer

Additional Notes: the orbits shown in the applet are color coded. The planets are white lines, and the asteroid/comet is a blue line. The bright white line indicates the portion of the orbit that is above the ecliptic plane, and the darker portion is below the ecliptic plane. Likewise for the asteroid/comet orbit, the light blue indicates the portion above the ecliptic plane, and the dark blue the portion below the ecliptic plane.

Orbit Viewer applet originally written and kindly provided by Osamu Ajiki (AstroArts), and further modified by Ron Baalke (JPL).


Orbital Elements at Epoch 2456400.5 (2013-Apr-18.0) TDB
Reference: JPL 17 (heliocentric ecliptic J2000)
 Element Value Uncertainty (1-sigma)   Units 
e .5322627518322202 6.5262e-08  
a 2.117336169224506 8.2401e-08 AU
q .9903569932391792 1.3437e-07 AU
i 13.11119708574681 2.0422e-05 deg
node 90.59338652955975 4.987e-05 deg
peri 145.0951890712995 6.1424e-05 deg
M 209.3766673187374 6.259e-05 deg
tp 2456871.339514498979
(2014-Aug-01.83951450)
0.00022293 JED
period 1125.338433311124
3.08
6.5692e-05
1.799e-07
d
yr
n .319903763475632 1.8675e-08 deg/d
Q 3.244315345209833 1.2626e-07 AU
  Orbit Determination Parameters
   # obs. used (total)      58  
   data-arc span      2186 days (5.98 yr)  
   first obs. used      2005-01-19  
   last obs. used      2011-01-14  
   planetary ephem.      DE405  
   SB-pert. ephem.      SB405-CPV-2  
   condition code      0  
   fit RMS      .60672  
   data source      ORB  
   producer      Otto Matic  
   solution date      2011-Oct-08 00:50:35  

Additional Information
 Earth MOID = .0304352 AU 
 T_jup = 3.509 
[ show covariance matrix ]

Ephemeris | Orbit Diagram | Orbital Elements | Physical Parameters | Close-Approach Data ]

Physical Parameter Table
Parameter Symbol Value Units Sigma Reference Notes
absolute magnitude H 19.256 mag .62636 17 autocmod 2.5a

[ show close-approach data ]
Ephemeris | Orbit Diagram | Orbital Elements | Physical Parameters | Close-Approach Data ]
ABOUT SSD CREDITS/AWARDS PRIVACY/COPYRIGHT GLOSSARY LINKS
FirstGov 2013-Jun-19 09:44 UT
(server date/time)  
NASA Home Page
Site Manager:   Donald K. Yeomans
Webmaster  Alan B. Chamberlin